Left ArrowRight Arrow

40.92501, -98.34201

Hourly Observations for June 16, 2024

Temp ( °F °C ) Dew Point ( °F °C ) Humidity (%) Winds ( mph kmh ) Pressure ( in mb ) Visibility ( mi km ) Precip ( " mm )
12:53 am 00:53 Clear 73 22.8 65 18.3 76 76 S 17 28 29.68 1005 10 16 0.00 0.00
1:53 am 01:53 Clear 72 22.2 66 18.9 82 82 S 16 26 29.66 1005 10 16 0.00 0.00
2:53 am 02:53 Clear 71 21.7 66 18.9 84 84 S 15 24 29.65 1004 10 16 0.00 0.00
3:53 am 03:53 Clear 70 21.1 66 18.9 87 87 S 14 22 29.63 1003 10 16 0.00 0.00
4:53 am 04:53 Clear 70 21.1 67 19.4 90 90 S 18 30 29.60 1003 10 16 0.00 0.00
5:53 am 05:53 Clear 70 21.1 67 19.4 90 90 S 17 28 29.62 1003 10 16 0.00 0.00
6:53 am 06:53 Sunny 70 21.1 67 19.4 90 90 S 15 24 29.63 1004 9 14 0.00 0.00
7:53 am 07:53 Sunny 74 23.3 67 19.4 79 79 S 16 26 29.65 1004 10 16 0.00 0.00
8:53 am 08:53 Sunny 78 25.6 68 20 71 71 S 16 26 29.66 1004 10 16 0.00 0.00
9:53 am 09:53 Sunny 81 27.2 68 20 65 65 SW 9 15 29.70 1006 10 16 0.00 0.00
10:53 am 10:53 Sunny 84 28.9 69 20.6 61 61 SSW 13 20 29.69 1005 10 16 0.00 0.00
11:53 am 11:53 Mostly Sunny 85 29.4 69 20.6 59 59 SW 8 13 29.69 1006 10 16 0.00 0.00
12:53 pm 12:53 Mostly Cloudy 86 30 70 21.1 59 59 S 8 13 29.70 1006 10 16 0.00 0.00
1:53 pm 13:53 Partly Cloudy 89 31.7 69 20.6 52 52 S 12 19 29.68 1005 10 16 0.00 0.00
2:53 pm 14:53 Partly Cloudy 89 31.7 73 22.8 59 59 SSW 10 17 29.67 1005 10 16 0.00 0.00
3:53 pm 15:53 Mostly Sunny 90 32.2 72 22.2 56 56 S 9 15 29.66 1004 10 16 0.00 0.00
4:53 pm 16:53 Mostly Sunny 92 33.3 74 23.3 56 56 S 9 15 29.65 1004 10 16 0.00 0.00
5:53 pm 17:53 Sunny 92 33.3 73 22.8 54 54 S 9 15 29.63 1003 10 16 0.00 0.00
6:53 pm 18:53 Sunny 91 32.8 72 22.2 54 54 SSE 12 19 29.63 1004 10 16 0.00 0.00
7:53 pm 19:53 Sunny 89 31.7 72 22.2 57 57 SE 9 15 29.63 1004 10 16 0.00 0.00
8:53 pm 20:53 Sunny 86 30 73 22.8 65 65 SE 9 15 29.65 1004 10 16 0.00 0.00
9:53 pm 21:53 Clear 84 28.9 73 22.8 70 70 SE 8 13 29.66 1004 10 16 0.00 0.00
10:53 pm 22:53 Clear 82 27.8 71 21.7 69 69 SE 13 20 29.66 1005 10 16 0.00 0.00
11:53 pm 23:53 Clear 81 27.2 69 20.6 67 67 SSE 18 30 29.62 1003 10 16 0.00 0.00

Powered by Vaisala Xweather